Tracking 18784 objects as of 18-August-2017
HD Live streaming from Space Station
objects crossing your sky now

PUCP-SAT 1

Track PUCP-SAT 1 now!
10-day predictions
PUCP-SAT 1 is classified as:


NORAD ID: 39442
Int'l Code: 2013-066AC
Perigee: 581.7 km
Apogee: 627.0 km
Inclination: 97.6 °
Period: 96.6 minutes
Semi major axis: 6975 km
RCS: Unknown
Launch date: November 21, 2013
Source: (TBD)
Launch site: Orenburg, Russia (OREN)
Uplink (MHz): 145.840
Downlink (MHz): 145.840/437.200
Beacon (MHz):
Mode: 1200bps AFSK
Call sign:
Status: Inactive

Your satellite tracking list
Your tracking list is empty





NASA's NSSDC Master Catalog

Two Line Element Set (TLE):
1 39442U 13066AC  17230.12612059  .00000386  00000-0  45109-4 0  9997
2 39442  97.6439 289.4597 0032428  19.9261 340.3216 14.90227894201911
Source of the keplerian elements: AFSPC